Year,Month,Day,Hour,Minute,Value (Times are PST for barometer in hPa)
2023,12,27,00,04,932.07
2023,12,27,00,05,932.07
2023,12,27,00,06,932.07
2023,12,27,00,07,932.07
2023,12,27,00,08,932.07
2023,12,27,00,09,932.07
2023,12,27,00,10,932.07
2023,12,27,00,11,932.07
2023,12,27,00,12,932.07
2023,12,27,00,13,932.07
2023,12,27,00,14,932.07
2023,12,27,00,15,932.07
2023,12,27,00,16,932.07
2023,12,27,00,17,932.07
2023,12,27,00,18,932.07
2023,12,27,00,19,932.07
2023,12,27,00,20,930.69
2023,12,27,00,21,905.83
2023,12,27,00,22,905.83
2023,12,27,00,23,905.83
2023,12,27,00,24,905.83
2023,12,27,00,29,927.74
2023,12,27,00,30,927.74
2023,12,27,00,31,927.74
2023,12,27,00,32,927.74
2023,12,27,00,33,927.74
2023,12,27,00,34,927.74
2023,12,27,00,35,927.74
2023,12,27,00,36,927.74
2023,12,27,00,37,927.74
2023,12,27,00,38,927.74
2023,12,27,00,39,927.74
2023,12,27,00,40,927.74
2023,12,27,00,41,927.74
2023,12,27,00,42,927.74
2023,12,27,00,43,927.74
2023,12,27,00,44,927.74
2023,12,27,00,45,927.74
2023,12,27,00,46,927.74
2023,12,27,00,47,927.74
2023,12,27,00,48,927.74
2023,12,27,00,49,927.74
2023,12,27,00,50,927.74
2023,12,27,00,51,927.74
2023,12,27,00,52,927.74
2023,12,27,00,53,927.74
2023,12,27,00,54,927.74
2023,12,27,00,55,927.74
2023,12,27,00,56,927.74
2023,12,27,00,57,927.74
2023,12,27,00,58,927.74
2023,12,27,00,59,927.74
2023,12,27,01,00,927.74
2023,12,27,01,01,927.74
2023,12,27,01,02,927.74
2023,12,27,01,03,927.74
2023,12,27,01,04,927.74
2023,12,27,01,05,927.74
2023,12,27,01,06,927.74
2023,12,27,01,07,927.74
2023,12,27,01,08,927.74
2023,12,27,01,09,927.74
2023,12,27,01,10,927.93
2023,12,27,01,11,929.60
2023,12,27,01,12,929.60
2023,12,27,01,13,929.60
2023,12,27,01,14,929.60
2023,12,27,01,15,929.60
2023,12,27,01,16,929.60
2023,12,27,01,17,929.60
2023,12,27,01,18,929.60
2023,12,27,01,19,929.60
2023,12,27,01,20,929.60
2023,12,27,01,21,929.60
2023,12,27,01,22,929.60
2023,12,27,01,23,929.60
2023,12,27,03,03,903.76
2023,12,27,03,04,903.76
2023,12,27,03,05,903.76
2023,12,27,03,06,903.76
2023,12,27,03,07,903.76
2023,12,27,03,08,903.76
2023,12,27,03,09,903.76
2023,12,27,03,10,903.76
2023,12,27,03,11,903.76
2023,12,27,03,12,903.76
2023,12,27,03,13,903.76
2023,12,27,03,14,903.76
2023,12,27,03,15,903.76
2023,12,27,03,16,903.76
2023,12,27,03,17,903.76
2023,12,27,03,18,903.76
2023,12,27,03,19,903.76
2023,12,27,03,20,903.76
2023,12,27,03,29,916.39
2023,12,27,03,30,916.39
2023,12,27,03,31,916.39
2023,12,27,03,32,916.39
2023,12,27,03,33,916.39
2023,12,27,03,34,916.39
2023,12,27,03,35,916.39
2023,12,27,03,36,916.39
2023,12,27,03,37,916.39
2023,12,27,03,38,916.39
2023,12,27,03,39,916.39
2023,12,27,03,40,916.39
2023,12,27,03,41,916.39
2023,12,27,03,42,916.39
2023,12,27,03,43,916.39
2023,12,27,03,44,916.39
2023,12,27,03,45,916.39
2023,12,27,03,46,916.39
2023,12,27,03,47,916.39
2023,12,27,03,48,916.39
2023,12,27,03,49,916.39
2023,12,27,03,50,916.39
2023,12,27,03,51,916.39
2023,12,27,03,52,916.39
2023,12,27,03,53,916.39
2023,12,27,03,54,916.39
2023,12,27,03,55,916.39
2023,12,27,03,56,916.39
2023,12,27,03,57,916.39
2023,12,27,03,58,916.39
2023,12,27,03,59,916.39
2023,12,27,04,00,916.39
2023,12,27,04,01,916.39
2023,12,27,04,02,916.39
2023,12,27,04,03,916.39
2023,12,27,04,04,916.39
2023,12,27,04,05,916.39
2023,12,27,04,06,916.39
2023,12,27,04,07,916.39
2023,12,27,04,08,916.39
2023,12,27,04,09,916.39
2023,12,27,04,10,916.78
2023,12,27,04,11,924.28
2023,12,27,04,12,924.28
2023,12,27,04,13,924.28
2023,12,27,04,14,924.28
2023,12,27,04,15,924.28
2023,12,27,04,16,924.28
2023,12,27,04,17,924.28
2023,12,27,04,18,924.28
2023,12,27,04,19,924.28
2023,12,27,04,20,924.28
2023,12,27,04,21,924.28
2023,12,27,04,22,924.28
2023,12,27,04,23,924.28
2023,12,27,04,24,924.28
2023,12,27,04,25,924.28
2023,12,27,04,26,924.28
2023,12,27,04,27,924.28
2023,12,27,04,28,924.28
2023,12,27,04,29,924.28
2023,12,27,04,30,924.28
2023,12,27,04,31,924.28
2023,12,27,04,32,924.28
2023,12,27,04,33,924.28
2023,12,27,04,34,924.28
2023,12,27,04,35,924.28
2023,12,27,04,36,924.28
2023,12,27,04,37,924.28
2023,12,27,04,38,924.28
2023,12,27,04,39,924.28
2023,12,27,04,40,924.28
2023,12,27,04,41,924.28
2023,12,27,04,42,924.28
2023,12,27,04,43,924.28
2023,12,27,04,44,924.28
2023,12,27,04,45,924.28
2023,12,27,04,46,924.28
2023,12,27,04,47,924.28
2023,12,27,04,48,924.28
2023,12,27,04,49,924.28
2023,12,27,04,50,924.28
2023,12,27,04,51,924.28
2023,12,27,04,52,924.28
2023,12,27,04,53,924.28
2023,12,27,04,54,924.28
2023,12,27,04,55,924.28
2023,12,27,04,56,924.28
2023,12,27,04,57,924.28
2023,12,27,04,58,924.28
2023,12,27,04,59,924.28
2023,12,27,05,00,924.28
2023,12,27,05,01,924.28
2023,12,27,05,02,923.79
2023,12,27,05,03,915.04
2023,12,27,05,04,915.04
2023,12,27,05,05,915.04
2023,12,27,05,06,915.04
2023,12,27,05,07,915.04
2023,12,27,05,08,915.04
2023,12,27,05,09,915.04
2023,12,27,05,10,915.04
2023,12,27,05,11,915.04
2023,12,27,05,12,915.04
2023,12,27,05,13,915.04
2023,12,27,05,14,915.04
2023,12,27,05,15,915.04
2023,12,27,05,16,915.04
2023,12,27,05,17,915.04
2023,12,27,05,18,915.04
2023,12,27,05,19,915.04
2023,12,27,05,20,915.04
2023,12,27,05,21,915.04
2023,12,27,05,22,915.04
2023,12,27,05,23,915.04
2023,12,27,05,24,915.04
2023,12,27,05,25,915.04
2023,12,27,05,26,915.04
2023,12,27,05,27,915.04
2023,12,27,05,28,915.04
2023,12,27,05,29,915.04
2023,12,27,05,30,915.04
2023,12,27,05,31,915.04
2023,12,27,05,32,915.04
2023,12,27,05,33,915.04
2023,12,27,05,34,915.04
2023,12,27,05,35,915.04
2023,12,27,05,36,915.04
2023,12,27,05,37,915.04
2023,12,27,05,38,915.04
2023,12,27,05,39,915.04
2023,12,27,05,40,915.04
2023,12,27,05,41,915.04
2023,12,27,05,42,915.04
2023,12,27,05,43,915.04
2023,12,27,05,44,915.04
2023,12,27,05,45,915.04
2023,12,27,05,46,915.04
2023,12,27,05,47,915.04
2023,12,27,05,48,915.04
2023,12,27,05,49,915.04
2023,12,27,05,50,915.04
2023,12,27,05,51,915.04
2023,12,27,05,52,915.04
2023,12,27,05,53,914.64
2023,12,27,05,54,907.35
2023,12,27,05,55,907.35
2023,12,27,05,56,907.35
2023,12,27,05,57,907.35
2023,12,27,05,58,907.35
2023,12,27,05,59,907.35
2023,12,27,06,00,907.35
2023,12,27,06,01,907.35
2023,12,27,06,02,907.35
2023,12,27,06,03,907.35
2023,12,27,06,04,907.35
2023,12,27,06,05,907.35
2023,12,27,06,06,907.35
2023,12,27,06,07,907.35
2023,12,27,06,08,907.28
2023,12,27,06,09,906.06
2023,12,27,06,10,906.06
2023,12,27,06,11,906.06
2023,12,27,06,12,906.06
2023,12,27,06,13,906.06
2023,12,27,06,14,906.06
2023,12,27,06,15,906.06
2023,12,27,06,16,906.06
2023,12,27,10,03,901.59
2023,12,27,10,04,901.59
2023,12,27,10,05,901.59
2023,12,27,10,06,901.59
2023,12,27,10,17,903.66
2023,12,27,10,18,903.66
2023,12,27,10,19,903.66
2023,12,27,10,20,903.66
2023,12,27,10,21,903.66
2023,12,27,10,22,903.66
2023,12,27,10,23,903.66
2023,12,27,10,24,903.66
2023,12,27,10,25,903.66
2023,12,27,10,26,903.66
2023,12,27,10,27,903.66
2023,12,27,10,28,903.66
2023,12,27,10,29,903.66
2023,12,27,10,30,901.59
2023,12,27,10,31,901.59
2023,12,27,10,32,901.59
2023,12,27,10,33,901.59
2023,12,27,10,34,901.59
2023,12,27,10,35,901.59
2023,12,27,10,36,901.59
2023,12,27,10,37,901.59
2023,12,27,10,38,901.59
2023,12,27,10,39,901.59
2023,12,27,10,40,901.59
2023,12,27,10,41,901.59
2023,12,27,10,42,901.59
2023,12,27,10,43,901.59
2023,12,27,10,44,901.59
2023,12,27,10,45,901.59
2023,12,27,10,46,901.59
2023,12,27,10,47,901.59
2023,12,27,10,48,901.59
2023,12,27,10,49,901.59
2023,12,27,10,50,901.59
2023,12,27,10,51,901.59
2023,12,27,10,52,901.59
2023,12,27,10,53,901.59
2023,12,27,10,54,901.59
2023,12,27,10,55,901.59
2023,12,27,10,56,901.59
2023,12,27,10,57,901.59
2023,12,27,10,58,901.59
2023,12,27,10,59,901.59
2023,12,27,11,00,901.59
2023,12,27,11,01,901.59
2023,12,27,11,02,901.59
2023,12,27,11,03,902.66
2023,12,27,11,04,922.93
2023,12,27,11,05,922.93
2023,12,27,11,06,922.93
2023,12,27,11,07,922.93
2023,12,27,11,08,922.93
2023,12,27,11,09,922.93
2023,12,27,11,10,922.93
2023,12,27,11,11,922.93
2023,12,27,11,12,922.93
2023,12,27,11,13,922.93
2023,12,27,11,14,922.93
2023,12,27,11,15,922.93
2023,12,27,11,16,922.93
2023,12,27,11,17,922.93
2023,12,27,11,18,922.93
2023,12,27,11,19,922.93
2023,12,27,11,20,922.93
2023,12,27,18,46,951.54
2023,12,27,18,47,951.54
2023,12,27,18,48,951.54
2023,12,27,18,49,951.54
2023,12,27,18,50,951.54
2023,12,27,18,51,951.54
2023,12,27,18,52,951.54
2023,12,27,18,53,951.54
2023,12,27,18,54,951.54
2023,12,27,18,55,951.54
2023,12,27,18,56,950.63
2023,12,27,18,57,950.63
2023,12,27,18,58,950.63
2023,12,27,18,59,950.63
2023,12,27,19,00,950.63
2023,12,27,19,01,950.63
2023,12,27,19,02,950.63
2023,12,27,19,03,950.63
2023,12,27,19,04,950.63
2023,12,27,19,05,950.63
2023,12,27,19,06,961.19
2023,12,27,19,07,961.19
2023,12,27,19,08,961.19
2023,12,27,19,09,961.19
2023,12,27,19,10,961.19
2023,12,27,19,11,961.19
2023,12,27,19,12,961.19
2023,12,27,19,13,961.19
2023,12,27,19,14,961.19
2023,12,27,19,15,961.19
2023,12,27,19,16,961.19
2023,12,27,19,17,961.19
2023,12,27,19,18,961.19
2023,12,27,19,19,961.19
2023,12,27,19,20,961.19
2023,12,27,19,21,961.19
2023,12,27,19,22,961.19
2023,12,27,19,23,961.19
2023,12,27,19,24,961.19
2023,12,27,19,25,961.19
2023,12,27,19,26,961.19
2023,12,27,19,27,961.19
2023,12,27,19,28,961.19
2023,12,27,19,29,961.19
2023,12,27,19,30,945.55
2023,12,27,19,31,945.55
2023,12,27,19,32,945.55
2023,12,27,19,33,945.38
2023,12,27,19,34,945.38
2023,12,27,19,35,945.38
2023,12,27,19,36,945.38
2023,12,27,19,37,945.38
2023,12,27,19,38,945.38
2023,12,27,19,39,945.38
2023,12,27,19,40,945.38
2023,12,27,19,41,950.53
2023,12,27,19,42,950.53
2023,12,27,19,43,950.53
2023,12,27,19,44,950.53
2023,12,27,19,45,950.53
2023,12,27,19,46,950.53
2023,12,27,19,47,950.53
2023,12,27,19,48,950.53
2023,12,27,19,49,950.53
2023,12,27,19,50,950.53
2023,12,27,19,51,976.32
2023,12,27,19,52,977.68
2023,12,27,19,53,977.68
2023,12,27,19,54,977.68
2023,12,27,19,55,977.68
2023,12,27,19,56,977.68
2023,12,27,19,57,977.68
2023,12,27,19,58,977.68
2023,12,27,19,59,977.68
2023,12,27,20,00,977.68
2023,12,27,20,01,977.68
2023,12,27,20,02,977.68
2023,12,27,20,03,977.68
2023,12,27,20,04,977.68
2023,12,27,20,05,977.68
2023,12,27,20,06,977.68
2023,12,27,20,07,977.68
2023,12,27,20,08,977.68
2023,12,27,20,09,977.68
2023,12,27,20,10,977.68
2023,12,27,20,11,977.68
2023,12,27,20,12,977.68
2023,12,27,20,13,977.68
2023,12,27,20,14,977.68
2023,12,27,20,15,979.17
2023,12,27,20,16,979.17
2023,12,27,20,17,979.17
2023,12,27,20,18,979.17
2023,12,27,20,19,979.17
2023,12,27,20,20,979.17
2023,12,27,20,21,979.17
2023,12,27,20,22,971.66
2023,12,27,20,23,971.66
2023,12,27,20,24,977.92
2023,12,27,20,25,977.92
2023,12,27,20,26,984.86
2023,12,27,20,27,984.86
2023,12,27,20,28,984.86
2023,12,27,20,29,984.86
2023,12,27,20,30,984.86
2023,12,27,20,31,984.86
2023,12,27,20,32,984.86
2023,12,27,20,33,984.86
2023,12,27,20,34,984.86
2023,12,27,20,35,984.86
2023,12,27,20,36,988.42
2023,12,27,20,37,988.42
2023,12,27,20,38,988.42
2023,12,27,20,39,984.69
2023,12,27,20,40,984.02
2023,12,27,20,41,984.02
2023,12,27,20,42,984.02
2023,12,27,20,43,984.02
2023,12,27,20,44,981.95
2023,12,27,20,45,981.95
2023,12,27,20,46,981.95
2023,12,27,20,47,981.95
2023,12,27,20,48,981.95
2023,12,27,20,49,981.95
2023,12,27,20,50,981.95
2023,12,27,20,51,981.95
2023,12,27,20,52,981.95
2023,12,27,20,53,981.95
2023,12,27,20,54,981.95
2023,12,27,20,55,981.95
2023,12,27,20,56,981.95
2023,12,27,20,57,981.95
2023,12,27,20,58,980.77
2023,12,27,20,59,980.77
2023,12,27,21,00,975.75
2023,12,27,21,01,975.75
2023,12,27,21,02,975.75
2023,12,27,21,03,977.85
2023,12,27,21,04,977.96
2023,12,27,21,05,977.96
2023,12,27,21,06,977.96
2023,12,27,21,07,977.96
2023,12,27,21,08,977.96
2023,12,27,21,09,977.96
2023,12,27,21,10,980.63
2023,12,27,21,11,980.63
2023,12,27,21,12,980.63
2023,12,27,21,13,980.63
2023,12,27,21,14,980.63
2023,12,27,21,15,980.63
2023,12,27,21,16,980.63
2023,12,27,21,17,980.63
2023,12,27,21,18,980.63
2023,12,27,21,19,980.63
2023,12,27,21,20,980.63
2023,12,27,21,21,981.92
2023,12,27,21,22,981.92
2023,12,27,21,23,981.92
2023,12,27,21,24,982.66
2023,12,27,21,25,982.66
2023,12,27,21,26,982.66
2023,12,27,21,27,982.66
2023,12,27,21,28,982.66
2023,12,27,21,29,979.75
2023,12,27,21,30,979.75
2023,12,27,21,31,979.75
2023,12,27,21,32,979.75
2023,12,27,21,33,979.75
2023,12,27,21,34,979.75
2023,12,27,21,35,979.75
2023,12,27,21,36,979.75
2023,12,27,21,37,979.75
2023,12,27,21,38,979.75
2023,12,27,21,39,979.75
2023,12,27,21,40,979.75
2023,12,27,21,41,979.75
2023,12,27,21,42,979.75
2023,12,27,21,43,979.75
2023,12,27,21,44,979.75
2023,12,27,21,45,979.75
2023,12,27,21,46,985.44
2023,12,27,21,47,985.44
2023,12,27,21,48,988.08
2023,12,27,21,49,988.22
2023,12,27,21,50,988.22
2023,12,27,21,51,985.34
2023,12,27,21,52,985.34
2023,12,27,21,53,985.34
2023,12,27,21,54,985.34
2023,12,27,21,55,985.34
2023,12,27,21,56,985.34
2023,12,27,21,57,985.34
2023,12,27,21,58,985.34
2023,12,27,21,59,985.34
2023,12,27,22,00,985.34
2023,12,27,22,01,985.34
2023,12,27,22,02,980.60
2023,12,27,22,03,980.60
2023,12,27,22,04,980.60
2023,12,27,22,05,980.60
2023,12,27,22,06,980.60
2023,12,27,22,07,980.60
2023,12,27,22,08,980.60
2023,12,27,22,09,975.99
2023,12,27,22,10,975.99
2023,12,27,22,11,975.99
2023,12,27,22,12,975.99
2023,12,27,22,13,975.99
2023,12,27,22,14,975.99
2023,12,27,22,15,975.99
2023,12,27,22,16,980.16
2023,12,27,22,17,980.16
2023,12,27,22,18,982.02
2023,12,27,22,19,982.02
2023,12,27,22,20,982.02
2023,12,27,22,21,982.02
2023,12,27,22,22,982.02
2023,12,27,22,23,982.02
2023,12,27,22,24,982.02
2023,12,27,22,25,982.02
2023,12,27,22,26,982.02
2023,12,27,22,27,982.02
2023,12,27,22,28,982.02
2023,12,27,22,29,982.02
2023,12,27,22,30,982.02
2023,12,27,22,31,982.02
2023,12,27,22,32,982.02
2023,12,27,22,33,982.02
2023,12,27,22,34,982.02
2023,12,27,22,35,982.02
2023,12,27,22,36,982.02
2023,12,27,22,37,982.02
2023,12,27,22,38,982.02
2023,12,27,22,39,982.02
2023,12,27,22,40,982.02
2023,12,27,22,41,982.02
2023,12,27,22,42,982.02
2023,12,27,22,43,982.02
2023,12,27,22,44,982.02
2023,12,27,22,45,960.28
2023,12,27,22,46,960.28
2023,12,27,22,47,960.28
2023,12,27,22,48,960.28
2023,12,27,22,49,960.28
2023,12,27,22,50,960.28
2023,12,27,22,51,960.28
2023,12,27,22,52,960.28
2023,12,27,22,53,960.28
2023,12,27,22,54,960.28
2023,12,27,22,55,960.28
2023,12,27,22,56,960.28
2023,12,27,22,57,960.28
2023,12,27,22,58,960.28
2023,12,27,22,59,960.28
2023,12,27,23,00,960.28
2023,12,27,23,01,960.28
2023,12,27,23,02,960.28
2023,12,27,23,03,960.28
2023,12,27,23,04,960.28
2023,12,27,23,05,960.28
2023,12,27,23,06,960.28
2023,12,27,23,07,960.28
2023,12,27,23,08,960.28
2023,12,27,23,09,960.28
2023,12,27,23,10,991.81
2023,12,27,23,11,991.81
2023,12,27,23,12,990.72
2023,12,27,23,13,990.65
2023,12,27,23,14,990.65
2023,12,27,23,15,990.65
2023,12,27,23,16,990.65
2023,12,27,23,17,990.93
2023,12,27,23,18,990.93
2023,12,27,23,19,990.93
2023,12,27,23,20,990.93
2023,12,27,23,21,990.93
2023,12,27,23,22,990.93
2023,12,27,23,23,990.93
2023,12,27,23,24,990.93
2023,12,27,23,25,981.78
2023,12,27,23,26,981.78
2023,12,27,23,27,983.51
2023,12,27,23,28,983.51
2023,12,27,23,29,983.51
2023,12,27,23,30,983.51
2023,12,27,23,31,983.51
2023,12,27,23,32,983.06
2023,12,27,23,33,983.04
2023,12,27,23,34,983.04
2023,12,27,23,35,983.34
2023,12,27,23,36,983.34
2023,12,27,23,37,983.34
2023,12,27,23,38,986.22
2023,12,27,23,39,986.22
2023,12,27,23,40,986.22
2023,12,27,23,41,986.22
2023,12,27,23,42,986.22
2023,12,27,23,43,986.22
2023,12,27,23,44,986.22
2023,12,27,23,45,986.22
2023,12,27,23,46,986.22
2023,12,27,23,47,989.13
2023,12,27,23,48,989.13
2023,12,27,23,49,989.13
2023,12,27,23,50,989.13
2023,12,27,23,51,989.13
2023,12,27,23,52,989.13
2023,12,27,23,53,989.13
2023,12,27,23,54,989.13
2023,12,27,23,55,989.13
2023,12,27,23,56,976.70
2023,12,27,23,57,976.70
2023,12,27,23,58,976.70
2023,12,27,23,59,976.70
